Location: Glenbow
(51.1592°N, 114.3828°W)
Time: 19:48:30
(UTC+00:00)

Envisat - Pass Details

Date: 02 December 2021
Orbit: 764 x 766 km, 98.2° (Epoch: 26 January)

Event Time Altitude Azimuth Distance (km) Brightness Sun altitude
Rises 01:23:45 0° 223° (SW) 3,225 7.2 -16.5°
Reaches altitude 10° 01:27:41 10° 254° (WSW) 2,306 6.8 -17.1°
Maximum altitude 01:29:35 12° 276° (W) 2,174 6.4 -17.3°
Drops below altitude 10° 01:31:29 10° 298° (WNW) 2,313 6.2 -17.6°
Sets 01:35:28 0° 330° (NNW) 3,247 6.5 -18.2°
